Home > Weather > Viña del Mar > Past weeks

Flag for Chile Past Weather in Viña del Mar, Chile — Yesterday and Last 2 Weeks

Now
63 °F

Broken clouds.


Feels Like: 63 °F
Forecast: 52 / 62 °F
Wind: 6 mph from West

Location: Pudahuel

Current Time: May 24, 2016 at 3:39:46 PM

Latest Report: May 24, 2016 at 3:00 PM


Visibility: N/A

Pressure: 30.04 "Hg

Humidity: 49%

Dew Point: 43 °F

Location of Viña del MarLocation

Past Weather in Viña del Mar — Graph

°F

Viña del Mar Temperature Yesterday

Maximum temperature yesterday: 72 °F (at 2:00 PM)
Minimum temperature yesterday: 48 °F (at 3:00 AM)
Average temperature yesterday: 56 °F

High & Low Weather Summary for the Past Weeks

 TemperatureHumidityPressure
High72 °F (May 23, 2:00 PM)100% (May 22, 9:00 AM)30.18 "Hg (May 22, 9:00 AM)
Low34 °F (May 22, 7:00 AM)20% (May 23, 3:00 PM)29.86 "Hg (May 14, 7:00 AM)
Average54 °F75%30.03 "Hg
* Reported May 9 3:00 PM — May 24 2:00 PM, Viña del Mar, Weather by CustomWeather, © 2016

Note: Actual official high and low records may vary slightly from our data, if they occured in-between our weather recording intervals... More about our weather records

Advertising

Viña del Mar Weather History for the Previous 24 Hours

Scroll right to see more
 ConditionsComfort  
Time TempWeatherWind HumidityBarometerVisibility
2:00 PM
Tue, May 24
63 °FBroken clouds.6 mph49%30.04 "HgN/A
1:00 PM61 °FBroken clouds.2 mph45%30.07 "HgN/A
12:00 PM57 °FBroken clouds.3 mph59%30.07 "Hg4 mi
11:00 AM54 °FPartly sunny.3 mph63%30.07 "Hg4 mi
10:00 AM48 °FPartly sunny.5 mph76%30.09 "Hg4 mi
9:00 AM43 °FBroken clouds.2 mph81%30.09 "Hg4 mi
8:00 AM43 °FBroken clouds.1 mph81%30.07 "Hg3 mi
7:00 AM43 °FClear.2 mph81%30.07 "Hg4 mi
6:00 AM43 °FClear.1 mph87%30.07 "Hg4 mi
5:00 AM43 °FClear.2 mph87%30.04 "Hg4 mi
4:00 AM45 °FClear.2 mph81%30.07 "Hg4 mi
3:00 AM46 °FClear.1 mph76%30.07 "Hg5 mi
2:00 AM45 °FClear.2 mph81%30.07 "Hg5 mi
1:00 AM46 °FClear.3 mph76%30.07 "Hg5 mi
12:00 AM46 °FClear.1 mph76%30.07 "Hg5 mi
11:00 PM
Mon, May 23
48 °FClear.No wind71%30.04 "Hg5 mi
10:00 PM50 °FClear.No wind71%30.04 "Hg10 mi
9:00 PM52 °FClear.1 mph67%30.01 "Hg10 mi
8:00 PM55 °FPassing clouds.5 mph67%30.01 "HgN/A
7:00 PM61 °FPassing clouds.3 mph52%30.01 "HgN/A
6:00 PM64 °FClear.6 mph46%29.98 "Hg10 mi
5:00 PM68 °FClear.9 mph38%29.98 "Hg10 mi
4:00 PM72 °FSunny.10 mph31%29.98 "Hg10 mi
3:00 PM72 °FSunny.6 mph20%29.98 "Hg10 mi
Weather by CustomWeather, © 2016

See weather overviewHow to use our weather pages